Location: Brantford
(43.1330°N, 80.2670°W)
Time: 11:22:30
(UTC-04:00)

N. Korean satellite - Visible Passes

Search period start: 19 September 2019 00:00
Search period end: 29 September 2019 00:00
Orbit: 455 x 509 km, 97.2° (Epoch: 18 September)

Date Brightness Start Highest point End Pass type
(mag) Time Alt. Az. Time Alt. Az. Time Alt. Az.
22 Sep 9.8 06:27:51 10° NE 06:30:05 16° E 06:32:20 10° SE visible
26 Sep 10.0 06:20:43 10° ENE 06:22:29 13° E 06:24:16 10° ESE visible
27 Sep 10.4 19:39:25 10° WSW 19:40:44 12° W 19:42:02 10° WNW visible
